This is the latest recevied weather packets stored in our database for station/object KC3BHK-2. If no packets are shown the sender has not sent any weather packets the latest 10 day(s).
| Time | Temp. | Humidity | Pressure | Rain* | Wind** | Luminosity | Snow |
|---|---|---|---|---|---|---|---|
| 1777852512 | 13.33° C | - | - | 0 mm | 0 m/s | - | - |
| 1777852207 | 13.33° C | - | - | 0 mm | 0 m/s | - | - |
| 1777851594 | 14.44° C | - | - | 0 mm | 1.79 m/s, 266° | - | - |
| 1777851290 | 15.56° C | - | - | 0 mm | 0.89 m/s, 280° | - | - |
| 1777850985 | 15.56° C | - | - | 0 mm | 1.34 m/s, 266° | - | - |
| 1777850680 | 16.11° C | - | - | 0 mm | 0.89 m/s, 263° | - | - |
| 1777850375 | 16.67° C | - | - | 0 mm | 1.79 m/s, 285° | - | - |
| 1777850068 | 16.11° C | - | - | 0 mm | 3.58 m/s, 291° | - | - |
| 1777849763 | 16.67° C | - | - | 0 mm | 1.79 m/s, 269° | - | - |
| 1777849458 | 16.67° C | - | - | 0 mm | 3.58 m/s, 277° | - | - |
| 1777849154 | 16.67° C | - | - | 0 mm | 3.13 m/s, 287° | - | - |
| 1777848849 | 17.22° C | - | - | 0 mm | 3.58 m/s, 259° | - | - |
| 1777848544 | 17.22° C | - | - | 0 mm | 2.68 m/s, 302° | - | - |
| 1777848236 | 18.33° C | - | - | 0 mm | 2.68 m/s, 291° | - | - |
| 1777847931 | 17.78° C | - | - | 0 mm | 2.24 m/s, 266° | - | - |
| 1777847626 | 17.78° C | - | - | 0 mm | 2.24 m/s, 250° | - | - |
| 1777847321 | 17.78° C | - | - | 0 mm | 1.34 m/s, 290° | - | - |
| 1777847017 | 18.89° C | - | - | 0 mm | 3.13 m/s, 253° | - | - |
| 1777846712 | 19.44° C | - | - | 0 mm | 2.24 m/s, 294° | - | - |
| 1777846405 | 18.89° C | - | - | 0 mm | 2.24 m/s, 309° | - | - |
| 1777846100 | 18.33° C | - | - | 0 mm | 0.89 m/s, 274° | - | - |
| 1777845796 | 19.44° C | - | - | 0 mm | 2.24 m/s, 266° | - | - |
| 1777845491 | 18.89° C | - | - | 0 mm | 2.68 m/s, 294° | - | - |
| 1777845186 | 18.33° C | - | - | 0 mm | 1.34 m/s, 308° | - | - |
| 1777844574 | 18.89° C | - | - | 0 mm | 1.34 m/s, 274° | - | - |
* Rain latest hour (hover to see other rain measurements)
** Current wind speed in m/s (hover to see current wind gust speed)